Time,TemperatureF,DewpointF,PressureIn,WindDirection,WindDirectionDegrees,WindSpeedMPH,WindSpeedGustMPH,Humidity,HourlyPrecipIn,Conditions,Clouds,dailyrainin,SolarRadiationWatts/m^2,SoftwareType,DateUTC
2013-05-03 00:04:00,56.7,38.8,30.08,SSW,206,0.0,1.0,51,0.00,,,0.00,0,Wunderground v.1.15,2013-05-03 07:04:00,
2013-05-03 00:10:00,56.4,39.0,30.09,SSW,206,0.0,1.0,52,0.00,,,0.00,0,Wunderground v.1.15,2013-05-03 07:10:00,
2013-05-03 00:15:00,56.2,39.3,30.08,SSW,206,0.0,1.0,53,0.00,,,0.00,0,Wunderground v.1.15,2013-05-03 07:15:00,
2013-05-03 00:21:00,55.9,39.5,30.08,SSW,206,0.0,1.0,54,0.00,,,0.00,0,Wunderground v.1.15,2013-05-03 07:21:00,
2013-05-03 00:27:00,55.5,39.1,30.08,SSW,206,0.0,1.0,54,0.00,,,0.00,0,Wunderground v.1.15,2013-05-03 07:27:00,
2013-05-03 00:32:00,55.3,38.9,30.08,SSW,206,0.0,1.0,54,0.00,,,0.00,0,Wunderground v.1.15,2013-05-03 07:32:00,
2013-05-03 00:38:00,55.1,39.2,30.08,SSW,206,0.0,1.0,55,0.00,,,0.00,0,Wunderground v.1.15,2013-05-03 07:38:00,
2013-05-03 00:43:00,54.9,39.0,30.08,SSW,206,0.0,1.0,55,0.00,,,0.00,0,Wunderground v.1.15,2013-05-03 07:43:00,
2013-05-03 00:48:00,54.7,38.8,30.08,SSW,206,0.0,1.0,55,0.00,,,0.00,0,Wunderground v.1.15,2013-05-03 07:48:00,
2013-05-03 00:53:00,54.6,39.2,30.08,SSW,206,0.0,1.0,56,0.00,,,0.00,0,Wunderground v.1.15,2013-05-03 07:53:00,
2013-05-03 00:59:00,54.3,39.4,30.08,SSW,206,0.0,1.0,57,0.00,,,0.00,0,Wunderground v.1.15,2013-05-03 07:59:00,
2013-05-03 01:05:00,54.1,39.2,30.08,SSW,206,0.0,1.0,57,0.00,,,0.00,0,Wunderground v.1.15,2013-05-03 08:05:00,
2013-05-03 01:10:00,53.9,39.0,30.08,SSW,206,0.0,1.0,57,0.00,,,0.00,0,Wunderground v.1.15,2013-05-03 08:10:00,
2013-05-03 01:15:00,53.7,39.3,30.08,SSW,206,0.0,1.0,58,0.00,,,0.00,0,Wunderground v.1.15,2013-05-03 08:15:00,
2013-05-03 01:21:00,53.5,39.1,30.08,SSW,206,0.0,1.0,58,0.00,,,0.00,0,Wunderground v.1.15,2013-05-03 08:21:00,
2013-05-03 01:26:00,53.3,38.9,30.08,SSW,206,0.0,1.0,58,0.00,,,0.00,0,Wunderground v.1.15,2013-05-03 08:26:00,
2013-05-03 01:31:00,53.1,38.7,30.08,SSW,206,0.0,1.0,58,0.00,,,0.00,0,Wunderground v.1.15,2013-05-03 08:31:00,
2013-05-03 01:37:00,52.8,38.9,30.08,SSW,206,0.0,1.0,59,0.00,,,0.00,0,Wunderground v.1.15,2013-05-03 08:37:00,
2013-05-03 01:42:00,52.7,39.2,30.08,SSW,206,0.0,1.0,60,0.00,,,0.00,0,Wunderground v.1.15,2013-05-03 08:42:00,
2013-05-03 01:47:00,52.6,39.5,30.08,SSW,206,0.0,1.0,61,0.00,,,0.00,0,Wunderground v.1.15,2013-05-03 08:47:00,
2013-05-03 01:53:00,52.4,39.3,30.08,SSW,206,0.0,1.0,61,0.00,,,0.00,0,Wunderground v.1.15,2013-05-03 08:53:00,
2013-05-03 01:59:00,52.2,39.1,30.08,SSW,206,0.0,1.0,61,0.00,,,0.00,0,Wunderground v.1.15,2013-05-03 08:59:00,
2013-05-03 02:04:00,52.1,39.5,30.08,SSW,206,0.0,1.0,62,0.00,,,0.00,0,Wunderground v.1.15,2013-05-03 09:04:00,
2013-05-03 02:09:00,51.9,39.7,30.08,SSW,206,0.0,1.0,63,0.00,,,0.00,0,Wunderground v.1.15,2013-05-03 09:09:00,
2013-05-03 02:15:00,51.7,39.5,30.07,SSW,206,0.0,1.0,63,0.00,,,0.00,0,Wunderground v.1.15,2013-05-03 09:15:00,
2013-05-03 02:20:00,51.5,38.9,30.07,SSW,206,0.0,1.0,62,0.00,,,0.00,0,Wunderground v.1.15,2013-05-03 09:20:00,
2013-05-03 02:25:00,51.4,39.2,30.07,SSW,206,0.0,1.0,63,0.00,,,0.00,0,Wunderground v.1.15,2013-05-03 09:25:00,
2013-05-03 02:30:00,51.2,39.0,30.07,SSW,206,0.0,1.0,63,0.00,,,0.00,0,Wunderground v.1.15,2013-05-03 09:30:00,
2013-05-03 02:36:00,51.0,39.2,30.07,SSW,206,0.0,1.0,64,0.00,,,0.00,0,Wunderground v.1.15,2013-05-03 09:36:00,
2013-05-03 02:41:00,50.9,39.1,30.06,SSW,206,0.0,1.0,64,0.00,,,0.00,0,Wunderground v.1.15,2013-05-03 09:41:00,
2013-05-03 02:46:00,50.8,39.1,30.06,SSW,206,0.0,1.0,64,0.00,,,0.00,0,Wunderground v.1.15,2013-05-03 09:46:00,
2013-05-03 02:52:00,50.6,38.9,30.06,SSW,206,0.0,1.0,64,0.00,,,0.00,0,Wunderground v.1.15,2013-05-03 09:52:00,
2013-05-03 02:57:00,50.4,39.1,30.06,SSW,206,0.0,1.0,65,0.00,,,0.00,0,Wunderground v.1.15,2013-05-03 09:57:00,
2013-05-03 03:02:00,50.3,39.0,30.06,SSW,206,0.0,1.0,65,0.00,,,0.00,0,Wunderground v.1.15,2013-05-03 10:02:00,
2013-05-03 03:07:00,50.2,39.3,30.06,SSW,206,0.0,1.0,66,0.00,,,0.00,0,Wunderground v.1.15,2013-05-03 10:07:00,
2013-05-03 03:13:00,50.0,39.1,30.06,SSW,206,0.0,1.0,66,0.00,,,0.00,0,Wunderground v.1.15,2013-05-03 10:13:00,
2013-05-03 03:18:00,49.9,39.0,30.05,SSW,206,0.0,1.0,66,0.00,,,0.00,0,Wunderground v.1.15,2013-05-03 10:18:00,
2013-05-03 03:24:00,49.8,39.3,30.05,SSW,206,0.0,1.0,67,0.00,,,0.00,0,Wunderground v.1.15,2013-05-03 10:24:00,
2013-05-03 03:29:00,49.7,38.8,30.05,SSW,206,0.0,1.0,66,0.00,,,0.00,0,Wunderground v.1.15,2013-05-03 10:29:00,
2013-05-03 03:34:00,49.5,38.6,30.05,SSW,206,0.0,1.0,66,0.00,,,0.00,0,Wunderground v.1.15,2013-05-03 10:34:00,
2013-05-03 03:39:00,49.4,38.9,30.05,SSW,206,0.0,1.0,67,0.00,,,0.00,0,Wunderground v.1.15,2013-05-03 10:39:00,
2013-05-03 03:44:00,49.2,38.7,30.04,SSW,206,0.0,1.0,67,0.00,,,0.00,0,Wunderground v.1.15,2013-05-03 10:44:00,
2013-05-03 03:50:00,49.1,38.6,30.04,SSW,206,0.0,1.0,67,0.00,,,0.00,0,Wunderground v.1.15,2013-05-03 10:50:00,
2013-05-03 03:55:00,48.9,38.4,30.04,SSW,206,0.0,1.0,67,0.00,,,0.00,0,Wunderground v.1.15,2013-05-03 10:55:00,
2013-05-03 04:00:00,48.8,38.3,30.04,SSW,206,0.0,1.0,67,0.00,,,0.00,0,Wunderground v.1.15,2013-05-03 11:00:00,
2013-05-03 04:05:00,48.7,38.6,30.04,SSW,206,0.0,1.0,68,0.00,,,0.00,0,Wunderground v.1.15,2013-05-03 11:05:00,
2013-05-03 04:10:00,48.5,38.4,30.04,SSW,206,0.0,1.0,68,0.00,,,0.00,0,Wunderground v.1.15,2013-05-03 11:10:00,
2013-05-03 04:15:00,48.4,38.3,30.04,SSW,206,0.0,1.0,68,0.00,,,0.00,0,Wunderground v.1.15,2013-05-03 11:15:00,
2013-05-03 04:20:00,48.3,38.2,30.04,SSW,206,0.0,1.0,68,0.00,,,0.00,0,Wunderground v.1.15,2013-05-03 11:20:00,
2013-05-03 04:25:00,48.2,38.5,30.04,SSW,206,0.0,1.0,69,0.00,,,0.00,0,Wunderground v.1.15,2013-05-03 11:25:00,
2013-05-03 04:30:00,48.1,38.4,30.04,SSW,206,0.0,1.0,69,0.00,,,0.00,0,Wunderground v.1.15,2013-05-03 11:30:00,
2013-05-03 04:36:00,48.1,38.4,30.03,SSW,206,0.0,1.0,69,0.00,,,0.00,0,Wunderground v.1.15,2013-05-03 11:36:00,
2013-05-03 04:42:00,47.9,38.2,30.03,SSW,206,0.0,1.0,69,0.00,,,0.00,0,Wunderground v.1.15,2013-05-03 11:42:00,
2013-05-03 04:48:00,47.8,38.1,30.03,SSW,206,0.0,1.0,69,0.00,,,0.00,0,Wunderground v.1.15,2013-05-03 11:48:00,
2013-05-03 04:53:00,47.7,38.4,30.03,SSW,206,0.0,1.0,70,0.00,,,0.00,0,Wunderground v.1.15,2013-05-03 11:53:00,
2013-05-03 04:58:00,47.6,38.3,30.03,SSW,206,0.0,1.0,70,0.00,,,0.00,0,Wunderground v.1.15,2013-05-03 11:58:00,
2013-05-03 05:04:00,47.5,38.2,30.03,SSW,206,0.0,1.0,70,0.00,,,0.00,0,Wunderground v.1.15,2013-05-03 12:04:00,
2013-05-03 05:10:00,47.4,38.5,30.03,SSW,206,0.0,1.0,71,0.00,,,0.00,0,Wunderground v.1.15,2013-05-03 12:10:00,
2013-05-03 05:16:00,47.3,38.4,30.03,SSW,206,0.0,1.0,71,0.00,,,0.00,0,Wunderground v.1.15,2013-05-03 12:16:00,
2013-05-03 05:21:00,47.2,38.3,30.03,SSW,206,0.0,1.0,71,0.00,,,0.00,0,Wunderground v.1.15,2013-05-03 12:21:00,
2013-05-03 05:26:00,47.1,38.2,30.03,SSW,206,0.0,1.0,71,0.00,,,0.00,0,Wunderground v.1.15,2013-05-03 12:26:00,
2013-05-03 05:31:00,47.0,38.4,30.03,SSW,206,0.0,1.0,72,0.00,,,0.00,0,Wunderground v.1.15,2013-05-03 12:31:00,
2013-05-03 05:36:00,46.9,38.3,30.03,SSW,206,0.0,1.0,72,0.00,,,0.00,0,Wunderground v.1.15,2013-05-03 12:36:00,
2013-05-03 05:41:00,46.8,38.6,30.03,SSW,206,0.0,1.0,73,0.00,,,0.00,0,Wunderground v.1.15,2013-05-03 12:41:00,
2013-05-03 05:46:00,46.7,38.5,30.03,SSW,206,0.0,1.0,73,0.00,,,0.00,0,Wunderground v.1.15,2013-05-03 12:46:00,
2013-05-03 05:52:00,46.6,38.1,30.02,SSW,206,0.0,1.0,72,0.00,,,0.00,0,Wunderground v.1.15,2013-05-03 12:52:00,
2013-05-03 05:58:00,46.5,38.0,30.02,SSW,206,0.0,1.0,72,0.00,,,0.00,0,Wunderground v.1.15,2013-05-03 12:58:00,
2013-05-03 06:04:00,46.4,38.2,30.02,SSW,206,0.0,1.0,73,0.00,,,0.00,0,Wunderground v.1.15,2013-05-03 13:04:00,
2013-05-03 06:09:00,46.3,38.1,30.02,SSW,206,0.0,1.0,73,0.00,,,0.00,0,Wunderground v.1.15,2013-05-03 13:09:00,
2013-05-03 06:15:00,46.3,38.1,30.02,SSW,206,0.0,1.0,73,0.00,,,0.00,7,Wunderground v.1.15,2013-05-03 13:15:00,
2013-05-03 06:21:00,46.2,38.0,30.02,SSW,206,0.0,1.0,73,0.00,,,0.00,11,Wunderground v.1.15,2013-05-03 13:21:00,
2013-05-03 06:26:00,46.1,37.9,30.02,SSW,206,0.0,1.0,73,0.00,,,0.00,14,Wunderground v.1.15,2013-05-03 13:26:00,
2013-05-03 06:32:00,46.0,37.8,30.02,SSW,206,0.0,1.0,73,0.00,,,0.00,18,Wunderground v.1.15,2013-05-03 13:32:00,
2013-05-03 06:38:00,45.9,38.1,30.02,SSW,206,0.0,1.0,74,0.00,,,0.00,21,Wunderground v.1.15,2013-05-03 13:38:00,
2013-05-03 06:43:00,45.9,38.4,30.03,SSW,206,0.0,1.0,75,0.00,,,0.00,25,Wunderground v.1.15,2013-05-03 13:43:00,
2013-05-03 06:48:00,45.9,38.4,30.03,SSW,206,0.0,1.0,75,0.00,,,0.00,26,Wunderground v.1.15,2013-05-03 13:48:00,
2013-05-03 06:54:00,45.9,38.4,30.03,SSW,206,0.0,1.0,75,0.00,,,0.00,39,Wunderground v.1.15,2013-05-03 13:54:00,
2013-05-03 07:00:00,46.0,38.9,30.03,SSW,206,0.0,1.0,76,0.00,,,0.00,72,Wunderground v.1.15,2013-05-03 14:00:00,
2013-05-03 07:05:00,46.2,39.4,30.03,SSW,206,0.0,1.0,77,0.00,,,0.00,88,Wunderground v.1.15,2013-05-03 14:05:00,
2013-05-03 07:11:00,46.6,39.8,30.03,SSW,206,0.0,1.0,77,0.00,,,0.00,107,Wunderground v.1.15,2013-05-03 14:11:00,
2013-05-03 07:16:00,46.9,39.7,30.03,SSW,206,0.0,1.0,76,0.00,,,0.00,125,Wunderground v.1.15,2013-05-03 14:16:00,
2013-05-03 07:22:00,47.4,39.5,30.03,SSW,206,0.0,1.0,74,0.00,,,0.00,134,Wunderground v.1.15,2013-05-03 14:22:00,
2013-05-03 07:27:00,47.9,39.7,30.03,SSW,206,0.0,1.0,73,0.00,,,0.00,162,Wunderground v.1.15,2013-05-03 14:27:00,
2013-05-03 07:33:00,48.8,40.2,30.03,SSW,206,0.0,1.0,72,0.00,,,0.00,188,Wunderground v.1.15,2013-05-03 14:33:00,
2013-05-03 07:38:00,49.8,41.1,30.03,SSW,206,0.0,1.0,72,0.00,,,0.00,207,Wunderground v.1.15,2013-05-03 14:38:00,
2013-05-03 07:43:00,51.0,41.2,30.03,SSW,206,0.0,1.0,69,0.00,,,0.00,221,Wunderground v.1.15,2013-05-03 14:43:00,
2013-05-03 07:48:00,51.9,41.7,30.03,SSW,206,0.0,1.0,68,0.00,,,0.00,241,Wunderground v.1.15,2013-05-03 14:48:00,
2013-05-03 07:53:00,52.6,41.2,30.03,SSW,206,0.0,1.0,65,0.00,,,0.00,258,Wunderground v.1.15,2013-05-03 14:53:00,
2013-05-03 07:58:00,53.5,40.8,30.03,SSW,206,0.0,1.0,62,0.00,,,0.00,276,Wunderground v.1.15,2013-05-03 14:58:00,
2013-05-03 08:04:00,54.4,40.8,30.03,SSW,206,0.0,1.0,60,0.00,,,0.00,294,Wunderground v.1.15,2013-05-03 15:04:00,
2013-05-03 08:09:00,55.4,40.9,30.02,SSW,206,0.0,1.0,58,0.00,,,0.00,309,Wunderground v.1.15,2013-05-03 15:09:00,
2013-05-03 08:14:00,56.6,41.5,30.02,SSW,206,0.0,1.0,57,0.00,,,0.00,329,Wunderground v.1.15,2013-05-03 15:14:00,
2013-05-03 08:19:00,58.0,41.9,30.02,SSW,206,0.0,1.0,55,0.00,,,0.00,345,Wunderground v.1.15,2013-05-03 15:19:00,
2013-05-03 08:24:00,59.2,42.1,30.02,SSW,206,0.0,1.0,53,0.00,,,0.00,359,Wunderground v.1.15,2013-05-03 15:24:00,
2013-05-03 08:29:00,60.2,41.0,30.01,SSW,206,0.0,1.0,49,0.00,,,0.00,378,Wunderground v.1.15,2013-05-03 15:29:00,
2013-05-03 08:35:00,61.4,41.5,30.01,SSW,206,0.0,1.0,48,0.00,,,0.00,397,Wunderground v.1.15,2013-05-03 15:35:00,
2013-05-03 08:40:00,62.2,41.2,30.01,SSW,206,0.0,1.0,46,0.00,,,0.00,413,Wunderground v.1.15,2013-05-03 15:40:00,
2013-05-03 08:45:00,62.9,40.0,30.01,SSW,206,0.0,1.0,43,0.00,,,0.00,431,Wunderground v.1.15,2013-05-03 15:45:00,
2013-05-03 08:51:00,63.8,39.6,30.01,SSW,206,0.0,1.0,41,0.00,,,0.00,450,Wunderground v.1.15,2013-05-03 15:51:00,
2013-05-03 08:56:00,64.5,40.3,30.01,SSW,206,0.0,1.0,41,0.00,,,0.00,464,Wunderground v.1.15,2013-05-03 15:56:00,
2013-05-03 09:01:00,65.4,40.4,30.01,SSW,206,0.0,1.0,40,0.00,,,0.00,482,Wunderground v.1.15,2013-05-03 16:01:00,
2013-05-03 09:06:00,66.5,42.7,30.01,SSW,206,0.0,1.0,42,0.00,,,0.00,497,Wunderground v.1.15,2013-05-03 16:06:00,
2013-05-03 09:11:00,67.7,43.1,30.01,SSW,206,0.0,1.0,41,0.00,,,0.00,513,Wunderground v.1.15,2013-05-03 16:11:00,
2013-05-03 09:16:00,69.0,40.9,30.01,SSW,206,0.0,1.0,36,0.00,,,0.00,529,Wunderground v.1.15,2013-05-03 16:16:00,
2013-05-03 09:22:00,70.2,41.3,30.00,SSW,206,0.0,1.0,35,0.00,,,0.00,548,Wunderground v.1.15,2013-05-03 16:22:00,
2013-05-03 09:27:00,71.2,39.0,30.00,SSW,206,0.0,1.0,31,0.00,,,0.00,564,Wunderground v.1.15,2013-05-03 16:27:00,
2013-05-03 09:32:00,72.0,38.9,30.00,SSW,206,0.0,1.0,30,0.00,,,0.00,580,Wunderground v.1.15,2013-05-03 16:32:00,
2013-05-03 09:37:00,72.8,37.8,30.00,SSW,206,0.0,1.0,28,0.00,,,0.00,596,Wunderground v.1.15,2013-05-03 16:37:00,
2013-05-03 09:42:00,73.4,37.4,29.99,SSW,206,0.0,1.0,27,0.00,,,0.00,610,Wunderground v.1.15,2013-05-03 16:42:00,
2013-05-03 09:48:00,74.5,38.3,29.99,SSW,206,0.0,1.0,27,0.00,,,0.00,628,Wunderground v.1.15,2013-05-03 16:48:00,
2013-05-03 09:53:00,75.3,37.0,29.99,SSW,206,0.0,1.0,25,0.00,,,0.00,642,Wunderground v.1.15,2013-05-03 16:53:00,
2013-05-03 09:58:00,76.0,37.6,29.99,SSW,206,0.0,1.0,25,0.00,,,0.00,656,Wunderground v.1.15,2013-05-03 16:58:00,
2013-05-03 10:03:00,77.5,37.8,29.98,South,177,0.0,1.0,24,0.00,,,0.00,670,Wunderground v.1.15,2013-05-03 17:03:00,
2013-05-03 10:09:00,78.2,39.5,29.98,South,178,0.0,1.0,25,0.00,,,0.00,684,Wunderground v.1.15,2013-05-03 17:09:00,
2013-05-03 10:14:00,78.8,41.0,29.98,South,179,0.0,1.0,26,0.00,,,0.00,698,Wunderground v.1.15,2013-05-03 17:14:00,
2013-05-03 10:20:00,79.0,39.1,29.98,South,184,1.0,1.0,24,0.00,,,0.00,714,Wunderground v.1.15,2013-05-03 17:20:00,
2013-05-03 10:25:00,79.8,39.8,29.98,South,188,1.0,2.0,24,0.00,,,0.00,724,Wunderground v.1.15,2013-05-03 17:25:00,
2013-05-03 10:30:00,80.3,39.1,29.98,South,188,0.0,1.0,23,0.00,,,0.00,738,Wunderground v.1.15,2013-05-03 17:30:00,
2013-05-03 10:36:00,81.1,39.8,29.98,South,188,0.0,1.0,23,0.00,,,0.00,754,Wunderground v.1.15,2013-05-03 17:36:00,
2013-05-03 10:41:00,81.8,40.4,29.98,South,188,0.0,1.0,23,0.00,,,0.00,765,Wunderground v.1.15,2013-05-03 17:41:00,
2013-05-03 10:46:00,82.2,40.7,29.97,South,182,0.0,1.0,23,0.00,,,0.00,777,Wunderground v.1.15,2013-05-03 17:46:00,
2013-05-03 10:51:00,82.7,41.1,29.97,South,184,1.0,2.0,23,0.00,,,0.00,788,Wunderground v.1.15,2013-05-03 17:51:00,
2013-05-03 10:57:00,83.4,41.7,29.97,South,184,1.0,2.0,23,0.00,,,0.00,803,Wunderground v.1.15,2013-05-03 17:57:00,
2013-05-03 11:02:00,84.1,41.1,29.97,South,184,1.0,1.0,22,0.00,,,0.00,814,Wunderground v.1.15,2013-05-03 18:02:00,
2013-05-03 11:08:00,84.4,41.4,29.97,South,182,0.0,1.0,22,0.00,,,0.00,826,Wunderground v.1.15,2013-05-03 18:08:00,
2013-05-03 11:13:00,85.4,42.2,29.97,South,182,0.0,1.0,22,0.00,,,0.00,837,Wunderground v.1.15,2013-05-03 18:13:00,
2013-05-03 11:19:00,86.6,43.2,29.97,South,182,0.0,2.0,22,0.00,,,0.00,846,Wunderground v.1.15,2013-05-03 18:19:00,
2013-05-03 11:25:00,87.3,43.8,29.96,South,182,1.0,5.0,22,0.00,,,0.00,856,Wunderground v.1.15,2013-05-03 18:25:00,
2013-05-03 11:30:00,87.8,44.2,29.96,South,182,1.0,1.0,22,0.00,,,0.00,863,Wunderground v.1.15,2013-05-03 18:30:00,
2013-05-03 11:36:00,88.8,45.0,29.95,South,182,0.0,1.0,22,0.00,,,0.00,874,Wunderground v.1.15,2013-05-03 18:36:00,
2013-05-03 11:41:00,88.7,43.7,29.96,SE,125,1.0,2.0,21,0.00,,,0.00,881,Wunderground v.1.15,2013-05-03 18:41:00,
2013-05-03 11:47:00,87.9,43.1,29.95,SE,125,1.0,3.0,21,0.00,,,0.00,886,Wunderground v.1.15,2013-05-03 18:47:00,
2013-05-03 11:52:00,88.7,43.7,29.95,ESE,112,0.0,1.0,21,0.00,,,0.00,895,Wunderground v.1.15,2013-05-03 18:52:00,
2013-05-03 11:58:00,89.5,44.4,29.95,ESE,112,0.0,1.0,21,0.00,,,0.00,904,Wunderground v.1.15,2013-05-03 18:58:00,
2013-05-03 12:03:00,90.4,45.1,29.95,SSW,194,0.0,2.0,21,0.00,,,0.00,905,Wunderground v.1.15,2013-05-03 19:03:00,
2013-05-03 12:09:00,90.4,45.1,29.94,SE,136,1.0,3.0,21,0.00,,,0.00,909,Wunderground v.1.15,2013-05-03 19:09:00,
2013-05-03 12:15:00,90.3,45.1,29.94,SE,138,1.0,1.0,21,0.00,,,0.00,916,Wunderground v.1.15,2013-05-03 19:15:00,
2013-05-03 12:20:00,90.5,46.5,29.94,SE,146,1.0,2.0,22,0.00,,,0.00,919,Wunderground v.1.15,2013-05-03 19:20:00,
2013-05-03 12:25:00,90.4,45.1,29.94,SSW,200,2.0,4.0,21,0.00,,,0.00,926,Wunderground v.1.15,2013-05-03 19:25:00,
2013-05-03 12:31:00,90.3,45.1,29.93,SSW,200,1.0,2.0,21,0.00,,,0.00,928,Wunderground v.1.15,2013-05-03 19:31:00,
2013-05-03 12:37:00,90.7,45.4,29.93,WSW,250,1.0,7.0,21,0.00,,,0.00,937,Wunderground v.1.15,2013-05-03 19:37:00,
2013-05-03 12:42:00,90.4,43.9,29.93,WSW,239,2.0,2.0,20,0.00,,,0.00,937,Wunderground v.1.15,2013-05-03 19:42:00,
2013-05-03 12:47:00,90.5,45.2,29.93,SW,224,2.0,6.0,21,0.00,,,0.00,940,Wunderground v.1.15,2013-05-03 19:47:00,
2013-05-03 12:52:00,90.4,43.9,29.92,SW,221,2.0,2.0,20,0.00,,,0.00,939,Wunderground v.1.15,2013-05-03 19:52:00,
2013-05-03 12:57:00,90.4,42.5,29.92,South,184,2.0,3.0,19,0.00,,,0.00,935,Wunderground v.1.15,2013-05-03 19:57:00,
2013-05-03 13:03:00,91.0,44.4,29.92,SE,138,1.0,5.0,20,0.00,,,0.00,937,Wunderground v.1.15,2013-05-03 20:03:00,
2013-05-03 13:09:00,90.7,42.8,29.92,South,180,2.0,5.0,19,0.00,,,0.00,939,Wunderground v.1.15,2013-05-03 20:09:00,
2013-05-03 13:14:00,90.9,41.5,29.92,South,171,3.0,6.0,18,0.00,,,0.00,937,Wunderground v.1.15,2013-05-03 20:14:00,
2013-05-03 13:20:00,91.7,44.9,29.91,South,190,1.0,3.0,20,0.00,,,0.00,935,Wunderground v.1.15,2013-05-03 20:20:00,
2013-05-03 13:25:00,92.1,43.9,29.91,SW,231,2.0,6.0,19,0.00,,,0.00,939,Wunderground v.1.15,2013-05-03 20:25:00,
2013-05-03 13:30:00,92.2,45.3,29.91,ESE,103,3.0,3.0,20,0.00,,,0.00,939,Wunderground v.1.15,2013-05-03 20:30:00,
2013-05-03 13:35:00,92.1,43.9,29.91,SE,128,2.0,5.0,19,0.00,,,0.00,937,Wunderground v.1.15,2013-05-03 20:35:00,
2013-05-03 13:40:00,92.1,43.9,29.90,SSE,161,2.0,5.0,19,0.00,,,0.00,933,Wunderground v.1.15,2013-05-03 20:40:00,
2013-05-03 13:46:00,92.4,45.5,29.90,South,182,2.0,5.0,20,0.00,,,0.00,928,Wunderground v.1.15,2013-05-03 20:46:00,
2013-05-03 13:52:00,92.6,45.7,29.90,SW,221,2.0,2.0,20,0.00,,,0.00,918,Wunderground v.1.15,2013-05-03 20:52:00,
2013-05-03 13:57:00,93.2,46.2,29.90,SE,144,2.0,5.0,20,0.00,,,0.00,916,Wunderground v.1.15,2013-05-03 20:57:00,
2013-05-03 14:02:00,93.5,45.1,29.89,ESE,119,2.0,2.0,19,0.00,,,0.00,918,Wunderground v.1.15,2013-05-03 21:02:00,
2013-05-03 14:07:00,93.2,46.2,29.89,SSE,152,2.0,3.0,20,0.00,,,0.00,909,Wunderground v.1.15,2013-05-03 21:07:00,
2013-05-03 14:13:00,93.0,44.6,29.89,South,185,3.0,4.0,19,0.00,,,0.00,900,Wunderground v.1.15,2013-05-03 21:13:00,
2013-05-03 14:19:00,92.6,47.0,29.89,SSE,147,3.0,6.0,21,0.00,,,0.00,888,Wunderground v.1.15,2013-05-03 21:19:00,
2013-05-03 14:25:00,92.3,48.0,29.89,NW,315,3.0,4.0,22,0.00,,,0.00,882,Wunderground v.1.15,2013-05-03 21:25:00,
2013-05-03 14:31:00,92.7,47.0,29.88,SSW,207,1.0,3.0,21,0.00,,,0.00,877,Wunderground v.1.15,2013-05-03 21:31:00,
2013-05-03 14:37:00,93.0,47.3,29.88,SW,221,2.0,7.0,21,0.00,,,0.00,867,Wunderground v.1.15,2013-05-03 21:37:00,
2013-05-03 14:43:00,92.8,48.4,29.88,SW,217,3.0,6.0,22,0.00,,,0.00,860,Wunderground v.1.15,2013-05-03 21:43:00,
2013-05-03 14:49:00,92.4,48.0,29.88,West,263,3.0,6.0,22,0.00,,,0.00,847,Wunderground v.1.15,2013-05-03 21:49:00,
2013-05-03 14:54:00,92.2,50.2,29.88,SW,223,3.0,5.0,24,0.00,,,0.00,840,Wunderground v.1.15,2013-05-03 21:54:00,
2013-05-03 15:00:00,92.6,50.5,29.88,West,264,3.0,3.0,24,0.00,,,0.00,833,Wunderground v.1.15,2013-05-03 22:00:00,
2013-05-03 15:05:00,92.4,50.4,29.87,SW,226,3.0,9.0,24,0.00,,,0.00,823,Wunderground v.1.15,2013-05-03 22:05:00,
2013-05-03 15:11:00,92.1,50.1,29.87,SSW,196,4.0,5.0,24,0.00,,,0.00,809,Wunderground v.1.15,2013-05-03 22:11:00,
2013-05-03 15:16:00,91.7,50.9,29.87,SSW,206,4.0,7.0,25,0.00,,,0.00,795,Wunderground v.1.15,2013-05-03 22:16:00,
2013-05-03 15:22:00,91.5,50.7,29.86,WNW,296,3.0,4.0,25,0.00,,,0.00,786,Wunderground v.1.15,2013-05-03 22:22:00,
2013-05-03 15:27:00,91.5,49.6,29.86,West,271,3.0,4.0,24,0.00,,,0.00,773,Wunderground v.1.15,2013-05-03 22:27:00,
2013-05-03 15:33:00,91.7,51.9,29.86,South,182,2.0,8.0,26,0.00,,,0.00,766,Wunderground v.1.15,2013-05-03 22:33:00,
2013-05-03 15:39:00,91.3,49.4,29.86,SSW,203,4.0,8.0,24,0.00,,,0.00,752,Wunderground v.1.15,2013-05-03 22:39:00,
2013-05-03 15:45:00,91.0,50.3,29.86,WSW,238,4.0,7.0,25,0.00,,,0.00,738,Wunderground v.1.15,2013-05-03 22:45:00,
2013-05-03 15:50:00,90.6,50.0,29.86,SSE,163,4.0,6.0,25,0.00,,,0.00,722,Wunderground v.1.15,2013-05-03 22:50:00,
2013-05-03 15:56:00,89.9,50.4,29.86,SW,223,5.0,9.0,26,0.00,,,0.00,712,Wunderground v.1.15,2013-05-03 22:56:00,
2013-05-03 16:02:00,89.6,50.2,29.86,SW,236,4.0,4.0,26,0.00,,,0.00,694,Wunderground v.1.15,2013-05-03 23:02:00,
2013-05-03 16:08:00,89.2,49.8,29.85,SW,228,4.0,5.0,26,0.00,,,0.00,677,Wunderground v.1.15,2013-05-03 23:08:00,
2013-05-03 16:13:00,88.7,49.4,29.85,SW,229,4.0,6.0,26,0.00,,,0.00,663,Wunderground v.1.15,2013-05-03 23:13:00,
2013-05-03 16:18:00,88.4,48.1,29.85,SW,214,4.0,6.0,25,0.00,,,0.00,645,Wunderground v.1.15,2013-05-03 23:18:00,
2013-05-03 16:24:00,88.1,48.9,29.85,WSW,250,4.0,7.0,26,0.00,,,0.00,631,Wunderground v.1.15,2013-05-03 23:24:00,
2013-05-03 16:29:00,87.7,47.5,29.85,SSW,210,5.0,9.0,25,0.00,,,0.00,613,Wunderground v.1.15,2013-05-03 23:29:00,
2013-05-03 16:34:00,87.1,47.0,29.85,West,279,5.0,8.0,25,0.00,,,0.00,603,Wunderground v.1.15,2013-05-03 23:34:00,
2013-05-03 16:40:00,86.7,45.6,29.86,WSW,237,4.0,4.0,24,0.00,,,0.00,587,Wunderground v.1.15,2013-05-03 23:40:00,
2013-05-03 16:46:00,86.6,45.5,29.85,WSW,254,2.0,5.0,24,0.00,,,0.00,570,Wunderground v.1.15,2013-05-03 23:46:00,
2013-05-03 16:52:00,86.8,45.7,29.85,West,272,2.0,7.0,24,0.00,,,0.00,552,Wunderground v.1.15,2013-05-03 23:52:00,
2013-05-03 16:58:00,86.4,43.1,29.85,WSW,238,4.0,8.0,22,0.00,,,0.00,534,Wunderground v.1.15,2013-05-03 23:58:00,
2013-05-03 17:03:00,86.2,42.9,29.85,SSW,194,3.0,4.0,22,0.00,,,0.00,520,Wunderground v.1.15,2013-05-04 00:03:00,
2013-05-03 17:08:00,86.2,42.9,29.85,SSW,200,2.0,5.0,22,0.00,,,0.00,506,Wunderground v.1.15,2013-05-04 00:08:00,
2013-05-03 17:13:00,86.1,41.6,29.85,SSW,198,3.0,5.0,21,0.00,,,0.00,492,Wunderground v.1.15,2013-05-04 00:13:00,
2013-05-03 17:19:00,85.8,41.3,29.85,SSW,199,3.0,7.0,21,0.00,,,0.00,471,Wunderground v.1.15,2013-05-04 00:19:00,
2013-05-03 17:25:00,85.7,43.6,29.85,South,189,2.0,3.0,23,0.00,,,0.00,454,Wunderground v.1.15,2013-05-04 00:25:00,
2013-05-03 17:30:00,86.1,41.6,29.85,SW,231,1.0,2.0,21,0.00,,,0.00,439,Wunderground v.1.15,2013-05-04 00:30:00,
2013-05-03 17:35:00,86.1,40.3,29.85,WNW,287,2.0,4.0,20,0.00,,,0.00,425,Wunderground v.1.15,2013-05-04 00:35:00,
2013-05-03 17:41:00,85.6,39.9,29.85,SW,236,3.0,3.0,20,0.00,,,0.00,406,Wunderground v.1.15,2013-05-04 00:41:00,
2013-05-03 17:47:00,85.3,39.7,29.85,West,267,3.0,4.0,20,0.00,,,0.00,383,Wunderground v.1.15,2013-05-04 00:47:00,
2013-05-03 17:53:00,85.1,39.5,29.85,WSW,239,2.0,3.0,20,0.00,,,0.00,362,Wunderground v.1.15,2013-05-04 00:53:00,
2013-05-03 17:58:00,85.0,39.4,29.85,West,272,2.0,4.0,20,0.00,,,0.00,345,Wunderground v.1.15,2013-05-04 00:58:00,
2013-05-03 18:03:00,85.0,40.7,29.84,West,265,1.0,3.0,21,0.00,,,0.00,327,Wunderground v.1.15,2013-05-04 01:03:00,
2013-05-03 18:09:00,85.1,40.8,29.84,SW,229,1.0,4.0,21,0.00,,,0.00,308,Wunderground v.1.15,2013-05-04 01:09:00,
2013-05-03 18:15:00,85.2,40.8,29.84,SW,229,1.0,2.0,21,0.00,,,0.00,288,Wunderground v.1.15,2013-05-04 01:15:00,
2013-05-03 18:21:00,85.1,40.8,29.84,SW,221,1.0,3.0,21,0.00,,,0.00,269,Wunderground v.1.15,2013-05-04 01:21:00,
2013-05-03 18:27:00,85.0,40.7,29.84,SW,221,0.0,3.0,21,0.00,,,0.00,248,Wunderground v.1.15,2013-05-04 01:27:00,
2013-05-03 18:33:00,84.8,41.7,29.84,SW,221,1.0,3.0,22,0.00,,,0.00,227,Wunderground v.1.15,2013-05-04 01:33:00,
2013-05-03 18:38:00,84.6,42.7,29.83,SW,221,0.0,3.0,23,0.00,,,0.00,199,Wunderground v.1.15,2013-05-04 01:38:00,
2013-05-03 18:44:00,84.4,41.4,29.83,WSW,251,1.0,1.0,22,0.00,,,0.00,178,Wunderground v.1.15,2013-05-04 01:44:00,
2013-05-03 18:49:00,84.3,42.5,29.83,WSW,251,1.0,1.0,23,0.00,,,0.00,158,Wunderground v.1.15,2013-05-04 01:49:00,
2013-05-03 18:55:00,84.0,42.2,29.83,WSW,249,0.0,1.0,23,0.00,,,0.00,144,Wunderground v.1.15,2013-05-04 01:55:00,
2013-05-03 19:00:00,83.7,44.1,29.83,WSW,248,0.0,1.0,25,0.00,,,0.00,127,Wunderground v.1.15,2013-05-04 02:00:00,
2013-05-03 19:05:00,83.5,42.9,29.83,WSW,252,0.0,2.0,24,0.00,,,0.00,109,Wunderground v.1.15,2013-05-04 02:05:00,
2013-05-03 19:10:00,83.2,42.6,29.83,WSW,252,0.0,1.0,24,0.00,,,0.00,90,Wunderground v.1.15,2013-05-04 02:10:00,
2013-05-03 19:16:00,82.9,42.4,29.83,WSW,252,0.0,1.0,24,0.00,,,0.00,56,Wunderground v.1.15,2013-05-04 02:16:00,
2013-05-03 19:21:00,82.7,44.3,29.83,WSW,252,0.0,1.0,26,0.00,,,0.00,46,Wunderground v.1.15,2013-05-04 02:21:00,
2013-05-03 19:27:00,82.2,45.8,29.83,WSW,252,0.0,1.0,28,0.00,,,0.00,39,Wunderground v.1.15,2013-05-04 02:27:00,
2013-05-03 19:32:00,81.7,45.4,29.83,WSW,252,0.0,1.0,28,0.00,,,0.00,33,Wunderground v.1.15,2013-05-04 02:32:00,
2013-05-03 19:38:00,81.1,45.8,29.83,WSW,252,0.0,1.0,29,0.00,,,0.00,26,Wunderground v.1.15,2013-05-04 02:38:00,
2013-05-03 19:44:00,80.4,47.0,29.83,WSW,252,0.0,1.0,31,0.00,,,0.00,21,Wunderground v.1.15,2013-05-04 02:44:00,
2013-05-03 19:49:00,79.8,46.5,29.82,WSW,252,0.0,1.0,31,0.00,,,0.00,16,Wunderground v.1.15,2013-05-04 02:49:00,
2013-05-03 19:55:00,78.8,45.6,29.82,WSW,252,0.0,1.0,31,0.00,,,0.00,12,Wunderground v.1.15,2013-05-04 02:55:00,
2013-05-03 20:00:00,77.9,44.8,29.82,WSW,252,0.0,1.0,31,0.00,,,0.00,7,Wunderground v.1.15,2013-05-04 03:00:00,
2013-05-03 20:05:00,77.2,45.0,29.82,WSW,252,0.0,1.0,32,0.00,,,0.00,0,Wunderground v.1.15,2013-05-04 03:05:00,
2013-05-03 20:11:00,76.5,46.8,29.82,WSW,252,0.0,1.0,35,0.00,,,0.00,0,Wunderground v.1.15,2013-05-04 03:11:00,
2013-05-03 20:17:00,75.9,46.3,29.82,WSW,252,0.0,1.0,35,0.00,,,0.00,0,Wunderground v.1.15,2013-05-04 03:17:00,
2013-05-03 20:23:00,75.2,47.8,29.82,WSW,252,0.0,1.0,38,0.00,,,0.00,0,Wunderground v.1.15,2013-05-04 03:23:00,
2013-05-03 20:29:00,74.5,47.9,29.82,WSW,252,0.0,1.0,39,0.00,,,0.00,0,Wunderground v.1.15,2013-05-04 03:29:00,
2013-05-03 20:35:00,73.8,47.3,29.82,WSW,252,0.0,1.0,39,0.00,,,0.00,0,Wunderground v.1.15,2013-05-04 03:35:00,
2013-05-03 20:41:00,73.1,48.0,29.82,WSW,252,0.0,1.0,41,0.00,,,0.00,0,Wunderground v.1.15,2013-05-04 03:41:00,
2013-05-03 20:46:00,72.5,47.5,29.82,WSW,252,0.0,1.0,41,0.00,,,0.00,0,Wunderground v.1.15,2013-05-04 03:46:00,
2013-05-03 20:52:00,71.7,46.7,29.82,WSW,252,0.0,1.0,41,0.00,,,0.00,0,Wunderground v.1.15,2013-05-04 03:52:00,
2013-05-03 20:57:00,71.0,46.7,29.82,WSW,252,0.0,1.0,42,0.00,,,0.00,0,Wunderground v.1.15,2013-05-04 03:57:00,
2013-05-03 21:01:00,70.5,46.3,29.82,WSW,252,0.0,1.0,42,0.00,,,0.00,0,Wunderground v.1.15,2013-05-04 04:01:00,
2013-05-03 21:03:00,70.2,46.0,29.82,WSW,252,0.0,1.0,42,0.00,,,0.00,0,Wunderground v.1.15,2013-05-04 04:03:00,
2013-05-03 21:05:00,69.9,45.8,29.82,WSW,252,0.0,1.0,42,0.00,,,0.00,0,Wunderground v.1.15,2013-05-04 04:05:00,
2013-05-03 21:08:00,69.4,45.3,29.82,WSW,252,0.0,1.0,42,0.00,,,0.00,0,Wunderground v.1.15,2013-05-04 04:08:00,
2013-05-03 21:09:00,69.4,45.3,29.82,WSW,252,0.0,1.0,42,0.00,,,0.00,0,Wunderground v.1.15,2013-05-04 04:09:00,
2013-05-03 21:15:00,68.7,45.3,29.82,WSW,252,0.0,1.0,43,0.00,,,0.00,0,Wunderground v.1.15,2013-05-04 04:15:00,
2013-05-03 21:21:00,68.1,45.9,29.82,WSW,252,0.0,1.0,45,0.00,,,0.00,0,Wunderground v.1.15,2013-05-04 04:21:00,
2013-05-03 21:27:00,67.5,44.8,29.82,WSW,252,0.0,1.0,44,0.00,,,0.00,0,Wunderground v.1.15,2013-05-04 04:27:00,
2013-05-03 21:33:00,67.0,44.9,29.82,WSW,252,0.0,1.0,45,0.00,,,0.00,0,Wunderground v.1.15,2013-05-04 04:33:00,
2013-05-03 21:38:00,66.6,45.2,29.82,WSW,252,0.0,1.0,46,0.00,,,0.00,0,Wunderground v.1.15,2013-05-04 04:38:00,
2013-05-03 21:44:00,66.0,45.2,29.82,WSW,252,0.0,1.0,47,0.00,,,0.00,0,Wunderground v.1.15,2013-05-04 04:44:00,
2013-05-03 21:50:00,65.7,44.9,29.82,WSW,252,0.0,1.0,47,0.00,,,0.00,0,Wunderground v.1.15,2013-05-04 04:50:00,
2013-05-03 21:55:00,65.4,44.6,29.83,WSW,252,0.0,1.0,47,0.00,,,0.00,0,Wunderground v.1.15,2013-05-04 04:55:00,
2013-05-03 22:00:00,65.0,44.8,29.83,WSW,252,0.0,1.0,48,0.00,,,0.00,0,Wunderground v.1.15,2013-05-04 05:00:00,
2013-05-03 22:06:00,64.4,43.7,29.82,WSW,252,0.0,1.0,47,0.00,,,0.00,0,Wunderground v.1.15,2013-05-04 05:06:00,
2013-05-03 22:12:00,63.9,43.8,29.82,WSW,252,0.0,1.0,48,0.00,,,0.00,0,Wunderground v.1.15,2013-05-04 05:12:00,
2013-05-03 22:18:00,63.5,44.0,29.82,WSW,252,0.0,1.0,49,0.00,,,0.00,0,Wunderground v.1.15,2013-05-04 05:18:00,
2013-05-03 22:23:00,63.1,43.6,29.82,WSW,252,0.0,1.0,49,0.00,,,0.00,0,Wunderground v.1.15,2013-05-04 05:23:00,
2013-05-03 22:29:00,62.8,43.3,29.82,WSW,252,0.0,1.0,49,0.00,,,0.00,0,Wunderground v.1.15,2013-05-04 05:29:00,
2013-05-03 22:35:00,62.5,43.1,29.82,WSW,252,0.0,1.0,49,0.00,,,0.00,0,Wunderground v.1.15,2013-05-04 05:35:00,
2013-05-03 22:40:00,62.3,42.9,29.82,WSW,252,0.0,1.0,49,0.00,,,0.00,0,Wunderground v.1.15,2013-05-04 05:40:00,
2013-05-03 22:46:00,61.9,43.0,29.82,WSW,252,0.0,1.0,50,0.00,,,0.00,0,Wunderground v.1.15,2013-05-04 05:46:00,
2013-05-03 22:52:00,61.5,42.7,29.82,WSW,252,0.0,1.0,50,0.00,,,0.00,0,Wunderground v.1.15,2013-05-04 05:52:00,
2013-05-03 22:58:00,61.2,42.9,29.82,WSW,252,0.0,1.0,51,0.00,,,0.00,0,Wunderground v.1.15,2013-05-04 05:58:00,
2013-05-03 23:03:00,60.9,42.6,29.82,WSW,252,0.0,1.0,51,0.00,,,0.00,0,Wunderground v.1.15,2013-05-04 06:03:00,
2013-05-03 23:09:00,60.7,43.0,29.82,West,279,0.0,1.0,52,0.00,,,0.00,0,Wunderground v.1.15,2013-05-04 06:09:00,
2013-05-03 23:14:00,60.7,43.5,29.81,WNW,290,1.0,3.0,53,0.00,,,0.00,0,Wunderground v.1.15,2013-05-04 06:14:00,
2013-05-03 23:20:00,60.7,43.9,29.81,WNW,291,0.0,1.0,54,0.00,,,0.00,0,Wunderground v.1.15,2013-05-04 06:20:00,
2013-05-03 23:25:00,60.8,44.0,29.81,WNW,291,0.0,1.0,54,0.00,,,0.00,0,Wunderground v.1.15,2013-05-04 06:25:00,
2013-05-03 23:31:00,60.7,44.4,29.81,WNW,291,0.0,1.0,55,0.00,,,0.00,0,Wunderground v.1.15,2013-05-04 06:31:00,
2013-05-03 23:37:00,60.6,44.3,29.81,WNW,291,0.0,1.0,55,0.00,,,0.00,0,Wunderground v.1.15,2013-05-04 06:37:00,
2013-05-03 23:43:00,60.5,44.7,29.81,WNW,291,0.0,1.0,56,0.00,,,0.00,0,Wunderground v.1.15,2013-05-04 06:43:00,
2013-05-03 23:48:00,60.4,44.6,29.81,WNW,291,0.0,1.0,56,0.00,,,0.00,0,Wunderground v.1.15,2013-05-04 06:48:00,
2013-05-03 23:53:00,60.2,44.4,29.80,WNW,291,0.0,1.0,56,0.00,,,0.00,0,Wunderground v.1.15,2013-05-04 06:53:00,
2013-05-03 23:59:00,60.0,44.3,29.80,WNW,291,0.0,1.0,56,0.00,,,0.00,0,Wunderground v.1.15,2013-05-04 06:59:00,